TimeEST,TemperatureF,Dew PointF,Humidity,Sea Level PressureIn,VisibilityMPH,Wind Direction,Wind SpeedMPH,Gust SpeedMPH,PrecipitationIn,Events,Conditions,WindDirDegrees,DateUTC
12:52 AM,-7.1,-15.0,68,30.45,10.0,West,10.4,-,N/A,,Scattered Clouds,260,2014-01-07 05:52:00
1:52 AM,-7.1,-15.0,68,30.46,10.0,WSW,11.5,20.7,N/A,,Scattered Clouds,250,2014-01-07 06:52:00
2:52 AM,-6.0,-14.1,68,30.48,10.0,WSW,9.2,17.3,N/A,,Partly Cloudy,240,2014-01-07 07:52:00
3:52 AM,-6.0,-14.1,68,30.45,10.0,SW,8.1,-,N/A,,Clear,230,2014-01-07 08:52:00
4:52 AM,-6.0,-14.1,68,30.46,10.0,WSW,9.2,-,N/A,,Partly Cloudy,240,2014-01-07 09:52:00
5:52 AM,-6.0,-14.1,68,30.46,10.0,WSW,5.8,17.3,N/A,,Partly Cloudy,240,2014-01-07 10:52:00
6:52 AM,-6.0,-13.0,72,30.48,10.0,WSW,6.9,-,N/A,,Partly Cloudy,240,2014-01-07 11:52:00
7:52 AM,-5.1,-11.9,72,30.49,10.0,SW,10.4,-,N/A,,Partly Cloudy,230,2014-01-07 12:52:00
8:52 AM,-2.9,-11.0,68,30.51,10.0,SW,10.4,-,N/A,,Partly Cloudy,220,2014-01-07 13:52:00
9:52 AM,-0.9,-9.0,69,30.54,10.0,WSW,9.2,19.6,N/A,,Partly Cloudy,240,2014-01-07 14:52:00
10:52 AM,1.0,-8.0,66,30.52,10.0,SSW,13.8,-,N/A,,Partly Cloudy,210,2014-01-07 15:52:00
11:52 AM,3.9,-7.1,60,30.52,10.0,West,15.0,20.7,N/A,,Partly Cloudy,260,2014-01-07 16:52:00
12:52 PM,6.1,-4.0,63,30.47,10.0,SW,13.8,18.4,N/A,,Partly Cloudy,230,2014-01-07 17:52:00
1:52 PM,8.1,-4.0,58,30.45,10.0,SW,12.7,-,N/A,,Partly Cloudy,230,2014-01-07 18:52:00
2:52 PM,9.0,-2.9,59,30.43,10.0,South,9.2,-,N/A,,Mostly Cloudy,180,2014-01-07 19:52:00
3:52 PM,9.0,-2.9,59,30.45,10.0,SSW,9.2,-,N/A,,Overcast,210,2014-01-07 20:52:00
4:52 PM,10.0,-2.0,58,30.44,10.0,SW,10.4,-,N/A,,Mostly Cloudy,220,2014-01-07 21:52:00
5:52 PM,9.0,-0.9,64,30.42,10.0,South,9.2,-,N/A,,Mostly Cloudy,190,2014-01-07 22:52:00
6:52 PM,10.0,-0.0,64,30.43,10.0,South,5.8,-,N/A,,Overcast,190,2014-01-07 23:52:00
7:52 PM,10.9,-0.0,61,30.43,10.0,South,8.1,-,N/A,,Overcast,190,2014-01-08 00:52:00
8:52 PM,10.9,1.0,64,30.44,10.0,South,8.1,-,N/A,,Overcast,180,2014-01-08 01:52:00
9:52 PM,10.9,3.0,70,30.45,10.0,SSW,5.8,-,N/A,,Overcast,200,2014-01-08 02:52:00
10:52 PM,10.0,1.9,70,30.44,10.0,South,5.8,-,N/A,,Partly Cloudy,180,2014-01-08 03:52:00
11:52 PM,8.1,1.9,76,30.43,10.0,South,5.8,-,N/A,,Partly Cloudy,180,2014-01-08 04:52:00